Hall Beach, British Columbia

6:09 AM EDT on March 25, 2017 (GMT -0400)
Hall Beach

Weather History for CYUX - October, 2011

Change the Weather History Date:

Sunday, October 30, 2011

  Actual Average Record
Temperature  
Mean Temperature 20 °F -  
Max Temperature 24 °F 2 °F 32 °F (1998)
Min Temperature 15 °F -13 °F -13 °F (2001)
Degree Days  
Heating Degree Days 46    
Moisture  
Dew Point 20 °F    
Average Humidity 93    
Maximum Humidity 100    
Minimum Humidity 85    
Precipitation  
Precipitation 0.00 in 0.02 in - ()
Sea Level Pressure  
Sea Level Pressure 30.02 in    
Wind  
Wind Speed 8 mph ()    
Max Wind Speed 13 mph    
Max Gust Speed -    
Visibility 8.1 miles    
Events Snow    
Averages and records for this station are not official NWS values.
T = Trace of Precipitation, MM = Missing Value Source: Averaged Metar Reports

Daily Weather History Graph

Daily Weather History Graph

Search for Another Location

Airport or City:

Trip Planner

Search our weather history database for the weather conditions in past years. The results will help you decide how hot, cold, wet, or windy it might be!

Date:

Astronomy

Oct. 30, 2011 Rise Set
Actual Time 9:33 AM EDT 4:42 PM EDT
Civil Twilight 8:26 AM EDT 5:49 PM EDT
Nautical Twilight 7:17 AM EDT 6:58 PM EDT
Astronomical Twilight 6:10 AM EDT 8:04 PM EDT
Moon No Moon Rise No Moon Set
Length of Visible Light 9h 22m
Length of Day
7h 09m
Waxing Crescent, 20% of the Moon is Illuminated
Oct 30
Waxing Crescent
Nov 2
First Quarter
Nov 10
Full
Nov 18
Last Quarter
Nov 25
New

Hourly Weather History & Observations

Time (EDT) Temp. Windchill Dew Point Humidity Pressure Visibility Wind Dir Wind Speed Gust Speed Precip Events Conditions
12:00 AM 21.2 °F 9.5 °F 19.4 °F 93% 30.00 in 9.0 mi ENE 11.5 mph - N/A   Overcast
12:24 AM 21.2 °F 9.5 °F 19.4 °F 93% 30.00 in 9.0 mi NE 11.5 mph - N/A   Partly Cloudy
12:35 AM 21.2 °F 9.5 °F 19.4 °F 93% 30.00 in 9.0 mi ENE 11.5 mph - N/A   Mostly Cloudy
12:39 AM 21.2 °F 10.1 °F 19.4 °F 93% 30.00 in 9.0 mi ENE 10.4 mph - N/A   Scattered Clouds
12:46 AM 21.2 °F 10.1 °F 19.4 °F 93% 30.00 in 9.0 mi ENE 10.4 mph - N/A   Mostly Cloudy
1:00 AM 21.2 °F 10.9 °F 19.4 °F 93% 30.01 in 9.0 mi ENE 9.2 mph - N/A   Overcast
1:43 AM 21.2 °F 10.9 °F 19.4 °F 93% 30.01 in 9.0 mi NE 9.2 mph - N/A Snow Light Snow
2:00 AM 22 °F - 19 °F 85% 30.02 in 6 mi NE 9.2 mph - -   Overcast
2:00 AM 21.2 °F 10.9 °F 19.4 °F 93% 30.02 in 6.0 mi ENE 9.2 mph - N/A Snow Light Snow
2:51 AM 21.2 °F 10.9 °F 19.4 °F 93% 30.02 in 4.0 mi ENE 9.2 mph - N/A Snow Light Snow
2:56 AM 21.2 °F 10.9 °F 19.4 °F 93% 30.02 in 2.5 mi NE 9.2 mph - N/A Snow Light Snow
3:00 AM 21.2 °F 10.1 °F 19.4 °F 93% 30.02 in 2.4 mi NE 10.4 mph - N/A Snow Light Snow
3:03 AM 21.2 °F 11.7 °F 19.4 °F 93% 30.02 in 2.5 mi NE 8.1 mph - N/A Snow Light Snow
3:13 AM 21.2 °F 10.9 °F 19.4 °F 93% 30.02 in 7.0 mi NE 9.2 mph - N/A Snow Light Snow
3:15 AM 21.2 °F 10.9 °F 19.4 °F 93% 30.01 in 8.0 mi NE 9.2 mph - N/A Snow Light Snow
3:18 AM 21.2 °F 10.9 °F 19.4 °F 93% 30.01 in 9.0 mi NE 9.2 mph - N/A Snow Light Snow
3:21 AM 21.2 °F 10.9 °F 19.4 °F 93% 30.01 in 9.0 mi ENE 9.2 mph - N/A   Overcast
3:43 AM 21.2 °F 10.9 °F 19.4 °F 93% 30.02 in 9.0 mi ENE 9.2 mph - N/A Snow Light Snow
3:47 AM 21.2 °F 10.1 °F 19.4 °F 93% 30.02 in 7.0 mi ENE 10.4 mph - N/A Snow Light Snow
3:51 AM 21.2 °F 10.1 °F 19.4 °F 93% 30.01 in 4.0 mi ENE 10.4 mph - N/A Snow Light Snow
3:55 AM 21.2 °F 9.5 °F 19.4 °F 93% 30.02 in 3.0 mi East 11.5 mph - N/A Snow Light Snow
3:56 AM 21.2 °F 9.5 °F 19.4 °F 93% 30.02 in 2.5 mi ENE 11.5 mph - N/A Snow Light Snow
4:00 AM 21.2 °F 9.5 °F 19.4 °F 93% 30.02 in 2.1 mi ENE 11.5 mph - N/A Snow Light Snow
4:05 AM 21.2 °F 9.5 °F 19.4 °F 93% 30.01 in 2.5 mi ENE 11.5 mph - N/A Snow Light Snow
4:15 AM 21.2 °F 10.1 °F 19.4 °F 93% 30.02 in 3.5 mi ENE 10.4 mph - N/A Snow Light Snow
4:48 AM 21.2 °F 10.1 °F 19.4 °F 93% 30.02 in 9.0 mi ENE 10.4 mph - N/A Snow Light Snow
5:00 AM 22 °F - 19 °F 85% 30.03 in 9 mi ENE 9.2 mph - - Snow Light Snow
5:00 AM 21.2 °F 10.9 °F 19.4 °F 93% 30.03 in 9.0 mi ENE 9.2 mph - N/A Snow Light Snow
5:15 AM 21.2 °F 10.1 °F 19.4 °F 93% 30.02 in 5.0 mi ENE 10.4 mph - N/A Snow Light Snow
5:32 AM 21.2 °F 10.9 °F 19.4 °F 93% 30.02 in 9.0 mi ENE 9.2 mph - N/A Snow Light Snow
5:42 AM 21.2 °F 11.7 °F 19.4 °F 93% 30.02 in 9.0 mi ENE 8.1 mph - N/A   Mostly Cloudy
6:00 AM 21.2 °F 10.9 °F 19.4 °F 93% 30.03 in 9.0 mi East 9.2 mph - N/A   Mostly Cloudy
6:46 AM 21.2 °F 12.6 °F 19.4 °F 93% 30.03 in 9.0 mi ENE 6.9 mph - N/A Snow Light Snow
6:55 AM 21.2 °F 12.6 °F 19.4 °F 93% 30.03 in 9.0 mi East 6.9 mph - N/A   Overcast
7:00 AM 21.2 °F 13.6 °F 19.4 °F 93% 30.04 in 9.0 mi East 5.8 mph - N/A   Overcast
7:17 AM 21.2 °F 12.6 °F 19.4 °F 93% 30.03 in 9.0 mi ENE 6.9 mph - N/A Snow Light Snow
8:00 AM 22 °F - 20 °F 88% 30.04 in 3 mi East 6.9 mph - -  
8:00 AM 21.2 °F 12.6 °F 19.4 °F 93% 30.04 in 4.0 mi East 6.9 mph - N/A Snow Light Snow
8:33 AM - - - N/A% - 10.0 mi East 5.8 mph - N/A   Unknown
9:00 AM 21.2 °F 11.7 °F 19.4 °F 93% 30.03 in 6.0 mi ENE 8.1 mph - N/A Snow Light Snow
9:44 AM - - - N/A% - 2.0 mi ENE 6.9 mph - N/A   Unknown
10:00 AM 21.2 °F 13.6 °F 21.2 °F 100% 30.04 in 5.0 mi ENE 5.8 mph - N/A Snow Light Snow
11:00 AM 22 °F - 20 °F 88% 30.04 in 9 mi East 8.1 mph - -   Overcast
12:00 PM 23.0 °F 13.1 °F 21.2 °F 93% 30.03 in 15.0 mi ENE 9.2 mph - N/A   Overcast
1:00 PM 23.0 °F 12.4 °F 21.2 °F 93% 30.03 in 15.0 mi East 10.4 mph - N/A Snow Light Snow
2:00 PM 23 °F - 21 °F 90% 30.02 in 9 mi East 10.4 mph - -   Overcast
2:00 PM 23.0 °F 12.4 °F 21.2 °F 93% 30.02 in 15.0 mi East 10.4 mph - N/A Snow Light Snow
3:28 PM - - - N/A% - 10.0 mi East 10.4 mph - N/A   Light Freezing Drizzle
4:00 PM 23.0 °F 12.4 °F 21.2 °F 93% 30.02 in 9.0 mi ESE 10.4 mph - N/A Snow Light Snow
5:00 PM 24 °F - 22 °F 90% 30.03 in 9 mi ESE 8.1 mph - -   Overcast
5:00 PM 23.0 °F 13.9 °F 23.0 °F 100% 30.03 in 10.0 mi ESE 8.1 mph - N/A Snow Light Snow
6:00 PM 23.0 °F 14.7 °F 21.2 °F 93% 30.03 in 12.0 mi ESE 6.9 mph - N/A Snow Light Snow
6:24 PM - - - N/A% - 12.0 mi East 5.8 mph - N/A   Light Freezing Drizzle
7:00 PM 23.0 °F 15.8 °F 23.0 °F 100% 30.03 in 15.0 mi East 5.8 mph - N/A Snow Light Snow
7:50 PM - - - N/A% - 10.0 mi East 2.3 mph - N/A   Light Freezing Drizzle
8:00 PM 24 °F - 23 °F 93% 30.03 in 6 mi East 3.5 mph - -   Overcast
8:00 PM 24.8 °F 20.5 °F 23.0 °F 93% 30.03 in 6.0 mi ENE 3.5 mph - N/A Snow Light Snow
8:12 PM 24.8 °F 20.5 °F 23.0 °F 93% 30.02 in 9.0 mi East 3.5 mph - N/A Snow Light Snow
8:14 PM 24.8 °F - 23.0 °F 93% 30.02 in 9.0 mi Calm Calm - N/A   Light Freezing Drizzle
8:24 PM 23.0 °F 13.1 °F 21.2 °F 93% 30.02 in 9.0 mi WNW 9.2 mph - N/A   Light Freezing Drizzle
8:28 PM 21.2 °F 11.7 °F 21.2 °F 100% 30.02 in 9.0 mi WNW 8.1 mph - N/A   Light Freezing Drizzle
8:39 PM 21.2 °F 12.6 °F 19.4 °F 93% 30.02 in 9.0 mi NW 6.9 mph - N/A   Light Freezing Drizzle
8:40 PM 21.2 °F 12.6 °F 19.4 °F 93% 30.02 in 9.0 mi NW 6.9 mph - N/A   Light Freezing Drizzle
8:44 PM 21.2 °F 10.9 °F 19.4 °F 93% 30.02 in 9.0 mi NW 9.2 mph - N/A   Mostly Cloudy
8:55 PM 21.2 °F 11.7 °F 19.4 °F 93% 30.02 in 9.0 mi NW 8.1 mph - N/A   Overcast
9:00 PM 21.2 °F 11.7 °F 19.4 °F 93% 30.03 in 9.0 mi NW 8.1 mph - N/A   Overcast
9:16 PM 21.2 °F 16.4 °F 21.2 °F 100% 30.01 in 9.0 mi North 3.5 mph - N/A   Overcast
9:34 PM 21.2 °F 13.6 °F 19.4 °F 93% 30.02 in 9.0 mi NW 5.8 mph - N/A   Overcast
9:43 PM 21.2 °F 12.6 °F 19.4 °F 93% 30.01 in 9.0 mi NW 6.9 mph - N/A   Overcast
10:00 PM 19.4 °F 11.5 °F 19.4 °F 100% 30.01 in 9.0 mi WNW 5.8 mph - N/A   Overcast
10:12 PM 19.4 °F 11.5 °F 19.4 °F 100% 30.00 in 9.0 mi NNW 5.8 mph - N/A   Overcast
10:24 PM 19.4 °F 12.8 °F 19.4 °F 100% 30.01 in 9.0 mi NW 4.6 mph - N/A   Overcast
10:29 PM 21.2 °F 14.9 °F 19.4 °F 93% 30.00 in 9.0 mi NW 4.6 mph - N/A   Overcast
10:51 PM 19.4 °F 9.5 °F 19.4 °F 100% 30.00 in 9.0 mi WSW 8.1 mph - N/A   Overcast
10:52 PM 19.4 °F 8.6 °F 17.6 °F 93% 30.00 in 9.0 mi West 9.2 mph - N/A   Overcast
10:53 PM 19.4 °F 9.5 °F 17.6 °F 93% 30.00 in 9.0 mi West 8.1 mph - N/A   Overcast
11:00 PM 19 °F - 18 °F 94% 30.01 in 9 mi West 9.2 mph - -   Overcast
11:00 PM 19.4 °F 7.9 °F 17.6 °F 93% 30.01 in 9.0 mi West 10.4 mph - N/A   Overcast
11:37 PM 15.8 °F 2.1 °F 14.0 °F 93% 30.00 in 9.0 mi West 12.7 mph - N/A   Overcast
11:57 PM 15.8 °F 3.4 °F 14.0 °F 93% 30.00 in 9.0 mi WNW 10.4 mph - N/A   Overcast